Regional Weather Roundup
Issued by NWS

Home | Current Version | Previous Version | Text Only | Print | Product List | Glossary Off
Versions: 1 2 3 4 5 6 7 8 9 10 11 12 13 14 15 16 17 18 19 20 21 22 23 24 25 26 27 28 29 30 31 32 33 34 35 36 37 38 39 40 41 42 43 44 45 46 47 48 49 50

673
ASUS43 KLMK 241702
RWRKY
KENTUCKY REGIONAL WEATHER ROUNDUP
NATIONAL WEATHER SERVICE LOUISVILLE KY
100 PM EDT MON JUL 24 2017

NOTE "FAIR" INDICATES FEW OR NO CLOUDS BELOW 12,000 FEET
WITH NO SIGNIFICANT WEATHER AND/OR OBSTRUCTIONS TO VISIBILITY.

KYZ001>023-026-027-061>063-070>075-241800-
WESTERN AND SOUTH CENTRAL KENTUCKY

CITY           SKY/WX    TMP DP  RH WIND       PRES   REMARKS
PADUCAH        FAIR      87  73  62 W5        29.94F HX  94
HENDERSON      FAIR      87  76  69 VRB6      29.95S HX  97
OWENSBORO      FAIR      86  75  69 SW5       29.95R HX  95
HOPKINSVILLE   PTSUNNY   86  75  70 SW5       29.96S HX  94
BOWLING GREEN  FAIR      89  70  53 W6        29.96S HX  94
GLASGOW        NOT AVBL
$$

KYZ024-025-028>034-038-045-046-053-241800-
NORTH CENTRAL KENTUCKY

CITY           SKY/WX    TMP DP  RH WIND       PRES   REMARKS
LOUISVILLE/SDF CLOUDY    89  73  59 W12G17    29.93S HX  97
LOUISVILLE/LOU PTSUNNY   87  73  62 W7        29.93F HX  94
FORT KNOX      FAIR      85  71  63 W7        29.94S HX  91
$$

KYZ035>037-039>044-047>052-055>060-089>105-241800-
NORTHEAST KENTUCKY

CITY           SKY/WX    TMP DP  RH WIND       PRES   REMARKS
LEXINGTON      CLOUDY    83  71  67 W7        29.95F
COVINGTON      FAIR      83  66  56 NW12      29.95R
FRANKFORT      PTSUNNY   85  71  63 W6        29.94S HX  90
$$

KYZ054-064>069-076>088-106>120-241800-
SOUTHEAST KENTUCKY

CITY           SKY/WX    TMP DP  RH WIND       PRES   REMARKS
JACKSON        FAIR      83  71  67 CALM      29.98S
LONDON         PTSUNNY   85  66  53 W8        29.99S
SOMERSET       NOT AVBL
MIDDLESBORO    PTSUNNY   83  70  66 S9        30.00S
MONTICELLO     FAIR      85  74  69 W14       30.00S HX  92
$$





USA.gov is the U.S. government's official web portal to all federal, state and local government web resources and services.